CAPE
0 63 713 1358 2078 1515 108 76 108 89 126 127 242 439 571 705 915 743 784 647 932 1201 1177 1262 1900 1844 1910 1765 1864 1615 1329 1925 1948 2062 1985 1905 2140 2169 2211 2343 2491 2643 2299 2196 2121 2249 2188 2193 2172
101 365 1169 2235 1693 116 73 89 118 139 143 506 588 533 301 196 299 384 483 502 1028 804 1254 1427 1655 1874 1593 1940 1888 1560 1392 1777 1774 1655 1750 2077 2142 2174 2136 2097 2137 2205 1948 2051 2064 2080 2044 2159 1898
592 839 1974 1824 711 107 53 108 187 149 342 461 744 608 266 82 95 248 318 503 762 1002 1073 1625 1837 1903 1805 1767 1945 1944 1937 1646 1780 1835 1936 2024 1924 1978 2007 2131 2016 2089 1951 1819 1647 1590 1662 1936 2130
1216 1849 2035 1228 261 89 99 159 254 149 213 515 519 125 66 91 147 189 224 330 387 824 1004 1682 1748 1661 1771 1996 1902 1776 1874 1832 1786 1823 1735 1718 1698 1822 2069 2119 2050 1759 1951 1764 2102 1814 1995 1894 1192
1347 1660 1262 1016 333 268 225 244 199 201 264 363 195 45 80 147 117 176 183 209 466 815 956 1564 1849 1860 1844 1875 1946 1727 1949 1774 1992 1919 1871 1790 1885 1773 1785 1769 2021 2162 1969 1933 2057 2008 1914 1243 1275
1933 1462 801 259 267 243 288 342 226 329 362 244 33 61 122 99 107 134 139 193 312 258 1053 1339 1898 1872 1863 1879 1878 1683 1835 1851 1775 1654 1655 1755 1511 1822 1889 1968 2027 1904 1886 2146 2052 2113 1826 1669 1341
1132 1200 987 353 634 358 549 482 266 153 144 140 57 108 40 83 50 89 146 159 237 475 590 844 1160 1558 1788 1772 1841 1824 1701 1751 1739 1655 1570 1705 1785 1518 1489 1840 1931 1833 2000 1956 1911 2084 1929 2000 1809
1228 855 492 330 528 840 437 110 4 13 193 43 56 39 0 47 45 43 132 129 165 283 260 560 688 179 945 1214 1727 1587 1644 1654 1495 1202 954 929 937 992 1313 1791 1956 1849 1978 1922 1740 1957 1826 2181 2001
448 650 663 694 497 728 439 228 23 0 11 5 1 0 0 13 8 27 74 117 379 372 217 273 311 383 666 755 1507 1393 1196 1117 1119 1266 1378 1308 990 1384 960 1875 1415 1867 1597 1617 1694 1749 1704 1967 2322
734 695 535 661 663 570 510 264 27 7 0 0 0 0 0 3 2 20 24 56 115 108 95 285 134 351 443 194 933 921 1074 1643 1486 1353 1512 1575 2125 2043 1287 1444 1374 1258 1595 1385 1357 1616 1801 1906 1282
511 246 443 692 995 516 450 169 113 257 289 13 0 0 0 0 2 13 22 10 76 76 139 249 312 334 402 665 1221 1102 1364 1431 1474 1534 1475 2396 1406 1717 1004 1065 1090 1104 1442 753 831 796 1613 1446 716
300 96 407 792 801 741 661 550 197 510 46 4 0 0 0 0 2 3 14 4 9 25 94 272 392 917 1132 1089 1262 1026 1353 1531 1151 1808 2141 1557 1281 1723 1457 1046 1182 1055 1451 811 790 884 1167 863 754
408 86 273 474 702 908 840 693 670 505 0 0 0 0 0 0 0 0 2 5 3 0 21 385 557 1055 1009 1686 1696 1436 511 929 1283 1339 1342 1612 1452 1821 1747 1388 997 1050 1062 1024 863 1359 1477 1070 892
447 294 397 501 730 788 774 811 627 406 0 0 0 0 0 0 0 0 0 4 8 0 0 389 661 853 916 2282 1369 1283 1558 1168 1437 1287 1596 1150 1030 1691 1278 1361 1069 819 807 841 816 1427 1549 1234 700
228 402 492 557 642 632 576 629 414 432 24 0 0 0 0 0 0 0 0 3 6 5 49 306 411 850 1210 1670 1721 1827 1097 1275 990 1790 1554 1539 1578 1581 2339 831 687 588 1105 1114 1714 1831 1164 779 796
207 288 314 482 463 604 401 423 914 601 270 0 0 1 7 5 0 0 0 0 0 3 55 207 260 823 1139 1538 1410 1757 1395 911 1025 1089 1484 1474 1648 1527 1974 942 598 955 1264 1181 1034 1501 830 825 770
167 72 481 480 223 721 407 559 795 489 471 44 0 0 3 11 0 0 0 0 0 1 237 479 584 712 978 1459 1468 2780 1845 1728 1120 1179 1384 1660 1486 1646 1271 916 1734 2150 1283 1666 998 833 1469 837 863
119 122 20 235 124 174 330 316 566 399 326 300 11 0 3 9 4 0 0 0 0 30 526 720 681 947 1227 1324 1902 1345 1361 1478 1102 1300 1875 2004 1735 1717 1716 1264 1911 2513 1124 1472 1397 2901 952 1743 1052
49 62 85 60 32 211 199 285 490 482 198 355 156 1 0 6 3 0 0 0 0 202 679 946 1013 2146 1665 1184 1050 1070 1631 1681 2414 2566 2087 2196 1970 1981 2105 1385 1749 2825 1464 2942 1871 1539 1417 1020 1061
38 61 84 35 27 59 200 112 110 690 476 209 329 33 1 0 2 1 49 68 42 315 786 1025 1172 1718 1619 1093 1367 2249 2408 1542 1708 1846 2120 2067 2027 2226 1808 2382 2016 2231 2276 2228 2342 2234 1478 897 1553
86 83 85 83 60 42 31 34 39 171 572 572 553 445 173 0 0 0 37 116 142 473 798 1078 1361 1778 2172 2002 1379 2325 3184 1679 1322 1754 1446 1568 1882 1934 1709 1729 1823 2284 3215 1751 2468 2271 1924 1734 1249
68 88 78 10 56 54 78 60 138 106 370 627 791 597 373 114 1 1 0 72 168 417 692 1079 1605 2395 1897 2552 2359 3247 2097 1159 596 938 1029 1463 1817 1842 1804 1735 1779 2116 1450 3738 2185 1790 2391 2236 1642
29 53 98 96 63 71 78 25 72 226 190 523 561 919 540 615 3 0 19 2 75 261 534 923 1698 2495 2943 2826 2717 2332 2148 1017 976 829 3167 2964 2792 1811 1524 1976 2225 2806 2202 1295 2020 2007 2451 1797 1319
8 18 42 79 64 85 86 91 111 302 281 316 593 592 853 599 344 19 3 35 42 90 265 693 2515 3117 2912 2656 2544 3833 3454 2468 831 1570 1624 1447 1950 2058 2105 2214 2949 3222 2488 1669 1682 2128 2438 2484 2264
6 40 64 88 70 53 78 77 84 55 42 175 482 773 776 757 605 166 18 38 99 87 184 349 1968 2695 2372 2143 2271 2738 3411 3600 3351 2644 1580 2093 1054 1190 4158 3452 3697 3219 3494 2828 2214 2319 2342 2223 1873
1 30 60 92 75 59 67 49 79 33 35 28 269 652 670 627 838 590 77 64 126 228 173 225 1714 2759 2691 1974 2908 3333 3687 2159 2223 2998 1646 1165 883 1008 4434 3419 2895 2830 3269 3242 3324 2202 1334 2333 1505
0 3 1 79 85 80 72 62 73 39 0 41 97 408 731 546 586 828 452 85 219 191 350 308 1347 2147 2408 1831 2883 3487 3604 3601 2012 3251 3953 2297 2768 1398 2318 2672 2678 2492 2748 2989 3336 2818 2552 1938 1869
0 0 33 54 85 84 87 43 92 67 24 10 121 206 556 707 507 676 893 462 144 99 206 359 573 1511 1574 1386 2566 2872 3184 3657 3535 3984 3705 3374 3218 2149 2734 2407 2498 2537 2506 2869 3413 3420 3464 2831 2249
0 15 40 27 32 59 85 90 62 68 89 40 35 28 140 632 629 513 674 901 605 244 196 337 524 1064 1805 2199 2321 2795 2327 3011 3345 2647 3186 3428 3319 3878 2995 3122 2740 2541 2494 2697 3821 4175 3288 3628 3158
1 5 12 26 6 19 54 91 56 131 93 26 73 488 266 158 609 498 511 660 1036 775 416 448 905 1083 2257 2792 2889 2304 1977 2647 2402 3492 3334 2988 3475 4010 3288 3313 3677 3225 3147 3903 4141 3194 3002 3203 2855
CIN
-28 -131 -31 -4 0 -7 0 -1 0 0 0 0 -1 -4 -5 -8 -1 -1 0 0 -1 -4 0 0 0 -1 0 0 0 0 -2 0 0 0 -3 -1 0 0 0 -1 0 0 0 0 0 0 0 0 0
-40 -50 -7 0 -8 -7 0 0 -8 -11 0 -1 -1 -1 -1 -30 -45 -22 -1 0 0 -1 -2 0 0 -1 0 -1 0 0 -1 0 0 -2 -2 0 -1 0 0 0 -1 0 0 0 0 0 0 0 0
-29 -9 0 -5 -9 -2 -1 0 -8 -4 -1 -1 0 0 -3 -26 -16 -10 -4 0 -10 -4 0 0 0 -1 0 0 0 0 0 0 0 0 0 0 0 0 0 0 0 0 0 0 0 0 0 0 0
-1 0 0 -2 -31 -4 -5 0 -1 0 -1 0 0 -30 -33 -13 0 -9 -7 0 0 -3 -1 0 0 0 0 0 0 0 0 0 0 0 0 0 0 0 -1 0 0 0 0 0 0 0 0 -1 -27
-5 -2 -2 -18 -1 0 -1 0 -3 -3 -2 0 -6 -23 -27 -6 -5 -1 -2 0 -1 -1 0 0 0 0 0 0 0 -1 0 -1 0 0 0 0 0 0 0 0 0 0 0 0 0 0 0 -24 -22
-1 0 -18 -1 -3 -1 -3 -1 -6 0 0 0 -18 -2 -7 -21 -4 -2 -2 0 -4 -1 0 0 0 0 0 0 0 -1 0 0 0 0 0 0 -2 0 0 0 0 0 0 0 0 0 0 -4 -21
-16 -9 -9 -1 0 -2 0 -1 -2 -1 -4 -7 -15 -17 -23 -27 -13 -9 -1 -1 -1 0 0 0 0 0 0 0 0 0 0 0 0 -1 -1 -2 -1 0 0 0 0 0 0 0 0 0 -4 -5 -16
-2 -23 -20 -3 0 0 -5 0 0 0 -2 -4 -2 -35 0 -43 -13 -6 -1 -1 -1 -1 -1 0 0 -23 0 0 0 -1 0 0 0 -1 -9 -20 -22 -15 -5 0 0 0 0 0 -5 -10 -20 -20 -28
-41 -27 -9 0 -1 0 0 -1 -20 0 -30 0 0 0 0 -33 0 0 -8 -5 0 -1 0 -1 -2 0 0 0 -1 -2 -7 -5 -3 -1 -8 -29 -1 -1 -11 -5 -8 0 -1 -12 -20 -27 -46 -53 -58
-12 -14 -2 -18 -1 0 0 -1 -25 -13 0 0 0 0 0 0 0 0 0 -12 -1 -9 -14 0 -7 0 0 -26 -6 0 -2 -6 0 -2 -5 -23 -11 -13 -1 -3 -15 -28 -20 -35 -42 -70 -59 -60 -9
-11 0 0 0 0 -3 0 0 0 0 0 -7 0 0 0 0 0 0 0 0 -1 -5 -2 -2 0 -1 0 -4 0 0 -1 0 0 -2 -4 -3 0 -2 0 -11 -13 -24 -32 -7 -36 -38 -15 -3 -1
-8 -35 0 -1 0 0 -1 -4 -1 0 -8 -18 0 0 0 0 0 0 0 0 0 -2 -2 -1 0 -1 -8 -2 -21 -54 0 -4 -13 -1 0 -1 -36 -10 -1 0 0 -4 -4 0 -1 0 0 0 -1
-11 -20 -24 -16 0 0 -3 0 -2 -3 0 0 0 0 0 0 0 0 0 0 0 0 0 0 0 0 -1 -2 -2 -72 -3 -17 -4 0 -46 -37 -12 -15 -29 0 0 -1 -1 0 -1 -2 0 -1 0
-19 0 0 0 -1 -1 0 0 0 -1 0 0 0 0 0 0 0 0 0 0 0 0 0 0 0 0 0 -1 0 -1 -18 -5 -23 -4 0 0 0 0 0 0 0 0 0 0 0 -1 -1 -2 0
-12 0 0 0 0 0 0 0 0 0 -44 0 0 0 0 0 0 0 0 0 0 -42 -8 -8 0 0 0 0 -1 -10 -4 -9 0 -4 0 0 0 -1 0 0 0 0 0 0 -4 -1 -6 -1 -1
-9 0 0 0 0 -2 -6 -4 0 -7 -6 0 0 0 0 0 0 0 0 0 0 0 -45 -15 -1 0 0 0 0 -11 -1 -1 0 0 0 0 0 -1 0 0 0 0 0 0 0 -1 -1 -2 -4
-6 -26 -2 -92 -2 -1 -2 -5 -1 -9 0 -24 0 0 0 0 0 0 0 0 0 0 -17 0 0 0 0 0 0 -1 -4 -6 0 0 0 0 0 0 -1 0 -1 -5 -1 -8 -1 -5 -3 -18 -4
-11 -6 -46 -7 -18 0 0 -1 0 -1 0 -4 0 0 0 0 0 0 0 0 0 -33 -3 0 0 -1 0 0 -1 0 -1 -9 -1 0 -15 0 0 -3 -1 0 -1 -3 0 0 -1 -3 -11 -3 -7
0 -1 -1 -1 -13 -12 -13 0 -3 0 -1 -9 -6 0 0 0 0 0 0 0 0 -72 -2 0 0 0 0 0 0 0 -9 -5 -28 -25 -1 0 0 0 -2 0 -1 -3 0 -1 -6 -2 -8 -5 -6
-13 0 -1 -1 -2 -15 -19 -26 -34 0 0 -19 -7 -17 0 0 0 0 -87 -105 -103 -42 -6 0 0 0 0 0 0 -4 -3 -17 -16 -32 0 0 0 0 -4 0 -1 -7 -3 -4 0 -3 -2 -9 -8
0 0 0 -1 -3 -7 -1 -4 0 -18 0 -2 -1 -1 -1 0 0 0 -59 -56 -49 -16 -9 0 0 0 0 0 0 -3 -22 -1 0 -1 0 0 -1 0 -1 -5 -1 -6 -4 -2 -2 -3 -4 -1 -4
0 -1 0 -18 0 0 -25 -1 -24 -33 -1 -4 0 -6 -3 -6 0 -30 0 -69 -44 -23 -6 0 0 0 0 0 0 0 -1 0 0 0 -1 0 0 0 0 0 0 -7 -2 -1 -1 -3 -5 -14 -1
0 -2 0 0 0 0 -28 0 -1 -4 -16 -1 0 -2 -1 0 -47 0 -113 -7 -65 -19 -11 0 0 0 0 0 -1 0 -1 0 0 0 -4 0 0 -1 0 0 0 0 0 -12 -8 -11 -20 -9 -41
0 0 -2 -3 0 0 0 0 0 -1 0 -12 0 0 -1 0 -1 -66 -81 -90 -91 -39 -18 -6 0 0 0 0 -3 0 -1 -1 -1 0 0 0 0 0 0 0 0 0 0 -23 -34 -27 -28 -23 -25
0 0 0 0 0 0 0 0 -1 -1 -29 -28 0 0 0 -1 -1 -12 -82 -111 -110 -109 -67 -45 -1 0 0 0 0 0 0 0 0 0 0 0 -1 0 -4 0 0 0 0 0 -22 -34 -30 -44 -58
0 0 0 0 0 0 0 -1 0 -1 0 -1 -7 0 0 0 0 0 -68 -104 -122 -104 -122 -111 -2 0 0 0 0 0 0 0 0 -1 0 -1 -1 0 -5 -3 0 0 0 0 0 -24 -82 -38 -98
0 0 0 0 0 0 0 0 0 -2 0 0 -44 0 0 -4 0 0 -3 -79 -77 -110 -121 -134 -28 -1 -1 -1 0 0 0 0 -1 0 -2 0 0 -1 0 0 0 0 0 0 0 0 -6 -41 -77
0 0 0 0 0 0 0 -1 -19 -1 -5 -1 -30 -6 -1 0 -2 0 0 -2 -69 -101 -87 -81 -69 -31 -32 -28 0 0 0 0 0 0 0 -1 0 -4 -1 0 0 0 0 0 0 0 -1 -4 -24
0 0 0 0 0 0 0 0 -1 0 0 0 0 -1 -16 0 -3 -4 0 -1 -1 -22 -54 -64 -54 -40 -14 -5 -1 0 -1 0 0 0 0 0 0 0 -1 0 0 0 0 0 0 0 0 0 0
0 0 0 0 0 0 0 -1 -2 -1 -2 -4 -1 -4 -5 -4 0 -4 0 0 0 -1 -4 -30 -8 -16 -5 0 0 -7 -4 0 0 0 0 0 0 0 0 0 0 0 0 0 0 -1 0 0 0
Wind_Speed
nan nan 23 21 20 19 3 nan 8 nan 9 9 8 4 7 7 8 4 14 5 8 8 8 7 3 4 5 8 10 10 10 10 8 8 8 6 5 6 10 12 10 11 13 13 12 14 14 10 8
16 17 21 22 19 7 nan nan 5 6 12 11 9 7 7 6 8 12 9 9 9 8 8 5 1 3 3 7 9 11 10 7 7 6 7 7 6 6 8 10 9 10 9 11 10 12 11 10 8
31 21 21 14 17 6 nan 11 10 10 15 9 12 1 6 nan nan 7 7 8 5 13 4 0 4 5 6 7 8 9 10 9 6 7 8 7 6 7 9 11 11 10 9 8 10 10 10 8 7
18 20 22 16 24 nan nan 5 9 14 12 10 16 9 nan nan 5 8 8 8 9 6 3 4 5 7 6 7 7 7 6 7 7 7 7 8 7 10 11 10 10 10 12 10 12 13 11 9 11
24 21 18 15 14 11 6 6 8 6 7 7 13 nan nan 3 7 8 8 7 8 8 3 3 3 4 5 5 4 5 5 6 8 10 10 12 9 10 12 12 11 11 12 13 15 14 10 10 8
18 18 15 7 8 8 4 6 5 10 6 10 nan nan 9 nan 10 9 8 11 9 6 5 3 1 2 3 3 4 6 5 5 7 10 12 10 10 11 10 11 10 11 13 16 15 13 13 12 10
16 15 11 3 9 5 6 1 9 8 12 18 nan 16 nan nan nan nan 11 8 6 8 5 6 3 3 5 5 7 6 6 7 9 11 13 13 12 11 11 11 9 10 15 15 17 16 15 12 10
16 16 12 2 5 8 2 2 nan nan 7 nan nan nan nan nan nan nan 7 12 8 9 7 3 5 4 6 6 8 7 6 8 9 12 13 12 13 13 15 12 14 15 21 19 18 16 12 11 13
17 8 7 17 6 6 5 7 nan nan nan nan nan nan nan nan nan nan nan 15 16 16 6 9 6 11 7 6 7 8 12 13 14 16 19 21 21 20 16 14 14 18 17 19 19 19 19 18 19
14 15 20 9 10 8 3 7 nan nan nan nan nan nan nan nan nan nan nan nan 18 15 nan 12 13 12 13 9 16 16 16 20 25 23 23 29 24 22 18 16 17 18 19 20 23 28 25 27 15
17 16 16 8 9 8 5 8 4 9 9 nan nan nan nan nan nan nan nan nan nan nan 17 12 9 19 15 11 20 19 17 18 15 22 27 23 19 19 21 22 23 21 24 23 24 23 23 17 12
10 nan 11 15 6 5 6 6 2 10 nan nan nan nan nan nan nan nan nan nan nan nan nan 17 15 16 22 19 24 27 18 22 18 20 22 21 23 28 25 24 21 23 26 17 20 13 11 8 12
12 nan 5 3 7 12 14 6 10 12 nan nan nan nan nan nan nan nan nan nan nan nan nan 12 17 21 21 28 27 33 25 28 20 19 21 27 25 24 24 25 22 24 15 16 14 9 13 13 8
8 12 15 11 6 7 11 6 11 13 nan nan nan nan nan nan nan nan nan nan nan nan nan 7 13 18 19 27 24 31 31 28 34 28 27 23 22 25 24 23 20 16 14 10 9 11 12 15 11
14 9 6 7 11 12 7 13 11 17 nan nan nan nan nan nan nan nan nan nan nan nan nan 8 11 12 15 14 23 27 25 28 27 27 26 27 20 24 20 18 15 12 11 10 8 14 11 13 15
3 6 12 19 13 13 3 3 14 18 18 nan nan nan nan nan nan nan nan nan nan nan nan 8 11 9 13 14 20 23 21 21 22 21 22 21 21 21 18 14 11 9 7 8 7 13 11 19 17
1 nan 22 5 7 15 3 10 16 15 18 nan nan nan nan nan nan nan nan nan nan nan 5 7 8 8 10 13 17 20 19 22 17 18 17 18 16 16 19 11 10 11 5 7 7 10 21 17 21
16 11 nan 12 27 13 7 14 19 19 18 18 nan nan nan nan nan nan nan nan nan nan 3 5 8 11 11 11 19 15 16 18 14 14 14 11 10 9 14 10 6 10 3 2 10 19 22 25 22
nan nan nan nan nan 11 14 11 26 19 10 17 10 nan nan nan nan nan nan nan nan 6 4 6 7 11 13 15 14 15 17 16 18 17 11 11 10 9 12 9 6 9 6 11 7 16 20 22 16
nan nan nan nan nan nan 10 11 18 17 9 19 10 nan nan nan nan nan nan nan nan 9 6 6 6 8 11 13 16 17 16 12 9 10 10 5 6 9 7 11 7 8 10 6 8 22 23 21 19
nan nan nan nan nan nan nan nan nan 19 13 22 17 14 13 nan nan nan nan 12 14 13 9 8 7 8 9 12 15 15 20 13 11 14 10 9 10 8 11 9 11 9 13 4 8 17 22 23 17
nan nan nan nan nan nan nan nan 13 29 16 16 16 15 17 16 nan nan nan nan 12 16 12 11 8 9 8 11 16 11 9 9 6 7 14 10 8 6 8 8 11 10 12 17 11 16 22 20 22
nan nan nan nan nan nan nan nan nan 33 17 17 14 24 15 17 nan nan nan nan nan 15 19 15 12 11 11 10 13 15 6 7 10 8 18 9 8 5 3 6 9 11 12 12 17 15 14 15 16
nan nan nan nan nan nan nan nan 11 27 25 23 16 11 14 13 12 nan nan nan nan nan 16 20 19 17 14 14 11 11 7 10 11 9 12 5 5 3 5 5 7 9 12 12 12 11 11 13 15
nan nan nan nan nan nan nan nan nan nan nan 22 19 15 13 13 17 16 nan nan nan nan 13 16 23 19 17 16 14 12 12 10 12 13 10 10 8 6 11 7 7 7 8 10 10 11 12 10 9
nan nan nan nan nan nan nan nan nan nan nan nan 19 19 17 14 18 22 nan nan 20 15 15 16 19 22 20 18 18 17 14 16 13 12 13 14 14 13 19 12 11 11 9 7 9 7 8 10 9
nan nan nan nan nan nan nan nan nan nan nan nan nan 24 19 20 15 19 22 nan 20 13 16 15 20 19 20 19 21 21 19 15 14 10 12 16 20 19 17 14 12 13 14 11 10 8 11 11 11
nan nan nan nan nan nan nan nan nan nan nan nan 16 17 17 18 11 14 16 23 20 nan 16 15 20 18 17 17 20 20 19 17 16 15 15 13 21 19 20 16 13 12 13 13 12 11 13 12 10
nan nan nan nan nan nan nan nan nan nan nan nan nan nan 10 13 13 14 15 19 18 17 17 18 20 21 15 16 17 17 18 17 18 16 16 15 17 22 18 18 15 15 15 14 15 13 16 17 15
nan nan nan nan nan nan nan nan nan 28 nan nan nan 35 20 10 12 12 13 15 17 14 17 19 19 20 18 17 16 16 18 18 19 19 18 19 19 21 20 17 18 15 17 19 17 17 16 18 17
Wind_Direction
nan nan 95 100 82 80 221 nan 293 nan 352 316 22 52 271 195 155 343 11 309 304 316 326 350 348 75 89 126 126 138 137 130 129 132 130 142 148 162 148 150 164 155 163 164 150 152 157 162 165
110 118 101 87 82 21 nan nan 335 331 332 345 338 7 282 263 311 343 355 23 333 318 350 328 55 122 85 124 131 137 131 137 138 133 149 160 165 144 132 142 154 164 149 158 156 155 155 156 177
112 109 101 92 88 293 nan 328 340 332 357 358 331 188 74 nan nan 355 356 360 352 22 269 345 96 132 125 130 133 140 141 160 165 176 177 177 159 139 137 142 153 155 143 148 149 147 139 146 142
129 110 102 115 65 nan nan 301 328 354 11 346 333 313 nan nan 13 352 5 20 26 200 214 80 103 134 144 162 160 163 164 158 164 170 166 169 160 142 132 136 133 124 125 144 141 139 148 144 139
114 108 98 99 249 242 296 320 7 352 3 350 327 nan nan 22 335 6 24 21 17 10 310 85 111 167 176 161 166 153 177 160 168 171 172 166 152 135 123 113 105 114 120 132 138 139 138 143 154
122 116 143 191 258 255 257 328 10 13 319 336 nan nan 342 nan 24 30 35 33 18 328 291 345 237 213 214 193 186 165 181 181 167 164 164 160 146 140 111 103 120 131 127 135 138 147 143 145 131
128 117 132 246 258 245 264 97 28 351 1 341 nan 333 nan nan nan nan 52 42 8 344 329 24 41 162 175 162 169 164 174 154 138 154 158 150 144 143 115 119 113 129 142 134 141 141 141 132 116
128 132 160 235 214 258 140 253 nan nan 297 nan nan nan nan nan nan nan 72 60 33 49 43 50 71 99 116 117 152 160 144 137 134 135 138 121 115 122 120 116 121 118 135 138 132 131 121 107 91
141 141 161 228 173 289 21 292 nan nan nan nan nan nan nan nan nan nan nan 60 48 60 81 87 119 84 87 119 130 111 125 122 116 112 111 99 109 101 104 154 126 128 127 121 119 101 83 68 58
162 180 202 193 195 281 303 309 nan nan nan nan nan nan nan nan nan nan nan nan 57 52 nan 60 68 95 91 137 108 119 134 124 116 111 103 120 143 150 143 140 123 113 113 111 101 88 78 70 62
168 180 212 210 227 268 269 293 342 318 337 nan nan nan nan nan nan nan nan nan nan nan 72 70 78 81 100 108 106 116 121 123 138 129 133 137 134 126 124 124 115 111 95 91 85 88 81 78 95
160 nan 175 236 276 291 304 213 283 236 nan nan nan nan nan nan nan nan nan nan nan nan nan 82 81 108 106 97 120 109 103 107 125 132 125 128 131 120 124 112 114 106 95 102 91 108 130 102 119
235 nan 195 347 248 272 307 289 244 263 nan nan nan nan nan nan nan nan nan nan nan nan nan 108 100 114 116 112 112 117 112 117 121 121 127 122 132 122 115 115 111 107 124 104 111 109 115 97 92
289 280 247 280 277 324 314 308 277 284 nan nan nan nan nan nan nan nan nan nan nan nan nan 129 101 115 114 118 122 118 129 125 118 126 137 137 131 135 133 124 121 124 113 107 118 95 92 115 114
235 269 271 291 308 314 31 330 315 297 nan nan nan nan nan nan nan nan nan nan nan nan nan 107 103 110 121 126 112 124 123 125 130 143 135 144 139 125 124 135 131 131 152 143 124 98 113 112 114
38 20 348 300 311 275 47 320 311 341 320 nan nan nan nan nan nan nan nan nan nan nan nan 121 109 113 113 123 119 128 124 133 139 136 134 133 141 135 143 131 149 163 116 86 88 95 128 140 139
182 nan 251 274 309 275 94 285 302 339 345 nan nan nan nan nan nan nan nan nan nan nan 187 141 154 140 129 140 122 133 139 129 138 140 147 138 139 139 140 162 193 114 113 139 107 132 142 146 130
334 350 nan 286 273 254 264 269 292 320 346 323 nan nan nan nan nan nan nan nan nan nan 228 209 174 200 173 162 138 143 134 137 142 146 174 141 162 155 134 194 194 114 141 246 152 155 148 152 141
nan nan nan nan nan 262 279 258 290 303 314 313 319 nan nan nan nan nan nan nan nan 273 245 214 180 196 166 182 142 160 160 157 178 189 199 180 197 197 159 222 189 132 206 207 169 151 150 141 146
nan nan nan nan nan nan 280 293 307 317 320 323 326 nan nan nan nan nan nan nan nan 256 249 221 193 194 150 166 178 170 168 169 203 185 220 191 234 247 212 220 228 163 245 192 175 161 153 152 164
nan nan nan nan nan nan nan nan nan 305 319 319 348 329 317 nan nan nan nan 263 261 267 253 240 217 228 172 195 194 191 186 210 206 230 226 231 240 242 230 223 203 210 168 218 173 170 164 163 173
nan nan nan nan nan nan nan nan 267 299 311 326 330 308 312 315 nan nan nan nan 265 263 255 254 233 242 214 213 232 208 203 223 236 264 260 258 265 229 222 214 202 189 167 198 181 174 175 177 170
nan nan nan nan nan nan nan nan nan 305 295 308 322 312 325 322 nan nan nan nan nan 265 260 247 249 240 231 226 213 241 203 244 257 261 271 242 228 183 219 228 205 190 169 196 168 202 190 191 178
nan nan nan nan nan nan nan nan 297 319 313 296 316 345 325 317 297 nan nan nan nan nan 268 256 252 242 238 247 220 241 211 203 270 252 249 205 250 229 168 238 199 191 188 199 195 190 200 188 194
nan nan nan nan nan nan nan nan nan nan nan 278 304 335 339 306 298 288 nan nan nan nan 288 274 263 253 251 253 256 244 241 222 244 256 238 202 195 221 260 220 200 198 196 219 207 218 194 216 205
nan nan nan nan nan nan nan nan nan nan nan nan 298 324 344 344 306 299 nan nan 296 311 315 308 282 261 257 257 249 246 237 249 232 244 222 209 204 221 249 224 211 193 233 220 239 244 233 241 243
nan nan nan nan nan nan nan nan nan nan nan nan nan 304 329 341 323 304 302 nan 288 291 305 309 284 275 263 261 254 253 249 237 258 247 225 211 209 224 238 237 219 220 220 223 236 216 258 241 256
nan nan nan nan nan nan nan nan nan nan nan nan 279 286 311 333 331 319 312 306 294 nan 280 293 293 273 264 265 256 258 261 251 234 237 248 211 234 212 233 239 240 234 224 234 237 229 269 264 253
nan nan nan nan nan nan nan nan nan nan nan nan nan nan 296 332 331 332 324 315 309 293 279 282 289 288 270 268 268 261 269 270 257 249 254 251 240 247 229 245 239 246 244 244 250 237 233 269 262
nan nan nan nan nan nan nan nan nan 286 nan nan nan 226 206 325 328 317 327 330 318 304 289 281 277 284 268 265 261 265 265 269 277 267 266 268 260 256 258 249 255 250 254 263 265 262 258 273 266